Time,TemperatureF,DewpointF,PressureIn,WindDirection,WindDirectionDegrees,WindSpeedMPH,WindSpeedGustMPH,Humidity,HourlyPrecipIn,Conditions,Clouds,dailyrainin,SoftwareType,DateUTC
2013-03-05 00:09:00,40.4,26.0,30.08,South,183,0.0,0.0,56,0.00,,,0.00,weatherlink.com 1.10,2013-03-05 05:09:00,
2013-03-05 00:24:00,40.1,26.0,30.08,South,183,0.0,1.0,58,0.00,,,0.00,weatherlink.com 1.10,2013-03-05 05:24:00,
2013-03-05 00:39:00,39.9,28.0,30.08,South,183,0.0,0.0,63,0.00,,,0.00,weatherlink.com 1.10,2013-03-05 05:39:00,
2013-03-05 00:54:00,39.1,28.0,30.09,South,183,0.0,1.0,64,0.00,,,0.00,weatherlink.com 1.10,2013-03-05 05:54:00,
2013-03-05 01:09:00,39.6,27.0,30.08,South,183,0.0,0.0,62,0.00,,,0.00,weatherlink.com 1.10,2013-03-05 06:09:00,
2013-03-05 01:24:00,38.9,26.0,30.09,South,183,0.0,1.0,61,0.00,,,0.00,weatherlink.com 1.10,2013-03-05 06:24:00,
2013-03-05 01:39:00,38.6,29.0,30.09,South,183,0.0,0.0,68,0.00,,,0.00,weatherlink.com 1.10,2013-03-05 06:39:00,
2013-03-05 01:54:00,37.8,26.0,30.09,South,184,1.0,1.0,63,0.00,,,0.00,weatherlink.com 1.10,2013-03-05 06:54:00,
2013-03-05 02:09:00,38.2,28.0,30.08,South,183,0.0,0.0,66,0.00,,,0.00,weatherlink.com 1.10,2013-03-05 07:09:00,
2013-03-05 02:24:00,37.4,29.0,30.07,South,183,0.0,1.0,71,0.00,,,0.00,weatherlink.com 1.10,2013-03-05 07:24:00,
2013-03-05 02:39:00,37.0,28.0,30.06,South,183,0.0,1.0,70,0.00,,,0.00,weatherlink.com 1.10,2013-03-05 07:39:00,
2013-03-05 02:54:00,37.3,28.0,30.06,South,183,0.0,0.0,70,0.00,,,0.00,weatherlink.com 1.10,2013-03-05 07:54:00,
2013-03-05 03:09:00,38.2,28.0,30.05,South,183,0.0,1.0,66,0.00,,,0.00,weatherlink.com 1.10,2013-03-05 08:09:00,
2013-03-05 03:24:00,37.5,29.0,30.05,South,183,0.0,1.0,70,0.00,,,0.00,weatherlink.com 1.10,2013-03-05 08:24:00,
2013-03-05 03:39:00,36.7,28.0,30.04,South,183,0.0,1.0,71,0.00,,,0.00,weatherlink.com 1.10,2013-03-05 08:39:00,
2013-03-05 03:54:00,36.4,29.0,30.04,South,183,0.0,1.0,74,0.00,,,0.00,weatherlink.com 1.10,2013-03-05 08:54:00,
2013-03-05 04:09:00,36.7,30.0,30.04,South,183,0.0,0.0,77,0.00,,,0.00,weatherlink.com 1.10,2013-03-05 09:09:00,
2013-03-05 04:24:00,36.7,29.0,30.04,South,183,0.0,0.0,73,0.00,,,0.00,weatherlink.com 1.10,2013-03-05 09:24:00,
2013-03-05 04:39:00,38.1,30.0,30.03,South,183,0.0,0.0,73,0.00,,,0.00,weatherlink.com 1.10,2013-03-05 09:39:00,
2013-03-05 04:54:00,38.1,29.0,30.04,South,184,0.0,0.0,70,0.00,,,0.00,weatherlink.com 1.10,2013-03-05 09:54:00,
2013-03-05 05:09:00,39.8,29.0,30.04,SE,127,0.0,1.0,65,0.00,,,0.00,weatherlink.com 1.10,2013-03-05 10:09:00,
2013-03-05 05:24:00,40.7,29.0,30.04,SE,127,0.0,1.0,64,0.00,,,0.00,weatherlink.com 1.10,2013-03-05 10:24:00,
2013-03-05 05:39:00,41.7,29.0,30.04,SE,125,1.0,1.0,62,0.00,,,0.00,weatherlink.com 1.10,2013-03-05 10:39:00,
2013-03-05 05:54:00,42.3,32.0,30.04,West,260,0.0,2.0,66,0.00,,,0.00,weatherlink.com 1.10,2013-03-05 10:54:00,
2013-03-05 06:09:00,42.1,31.0,30.03,WNW,300,0.0,1.0,65,0.00,,,0.00,weatherlink.com 1.10,2013-03-05 11:09:00,
2013-03-05 06:24:00,41.8,31.0,30.03,NW,314,0.0,1.0,66,0.00,,,0.00,weatherlink.com 1.10,2013-03-05 11:24:00,
2013-03-05 06:39:00,41.8,31.0,30.04,NW,312,1.0,1.0,66,0.00,,,0.00,weatherlink.com 1.10,2013-03-05 11:39:00,
2013-03-05 06:54:00,42.7,32.0,30.03,NE,56,0.0,2.0,67,0.00,,,0.00,weatherlink.com 1.10,2013-03-05 11:54:00,
2013-03-05 07:09:00,42.9,34.0,30.03,NNE,13,0.0,2.0,70,0.00,,,0.00,weatherlink.com 1.10,2013-03-05 12:09:00,
2013-03-05 07:25:00,42.9,34.0,30.02,NE,44,0.0,2.0,70,0.00,,,0.00,weatherlink.com 1.10,2013-03-05 12:25:00,
2013-03-05 07:40:00,43.1,34.0,30.01,SSE,166,0.0,2.0,71,0.00,,,0.00,weatherlink.com 1.10,2013-03-05 12:40:00,
2013-03-05 07:55:00,43.0,35.0,30.02,North,4,1.0,3.0,72,0.00,,,0.00,weatherlink.com 1.10,2013-03-05 12:55:00,
2013-03-05 08:10:00,42.8,34.0,30.02,NW,316,0.0,1.0,72,0.00,,,0.00,weatherlink.com 1.10,2013-03-05 13:10:00,
2013-03-05 08:25:00,42.9,34.0,30.02,ESE,121,1.0,1.0,70,0.00,,,0.00,weatherlink.com 1.10,2013-03-05 13:25:00,
2013-03-05 08:40:00,43.3,34.0,30.02,North,9,0.0,1.0,69,0.00,,,0.00,weatherlink.com 1.10,2013-03-05 13:40:00,
2013-03-05 08:55:00,43.3,35.0,30.02,NW,307,1.0,1.0,72,0.00,,,0.00,weatherlink.com 1.10,2013-03-05 13:55:00,
2013-03-05 09:10:00,42.5,35.0,30.02,ESE,114,0.0,0.0,76,0.00,,,0.00,weatherlink.com 1.10,2013-03-05 14:10:00,
2013-03-05 09:25:00,42.2,37.0,30.01,ESE,115,0.0,1.0,81,0.00,,,0.00,weatherlink.com 1.10,2013-03-05 14:25:00,
2013-03-05 09:40:00,42.0,37.0,30.00,ESE,114,0.0,0.0,82,0.00,,,0.00,weatherlink.com 1.10,2013-03-05 14:40:00,
2013-03-05 09:55:00,42.0,38.0,30.00,ESE,115,0.0,0.0,84,0.00,,,0.00,weatherlink.com 1.10,2013-03-05 14:55:00,
2013-03-05 10:10:00,42.4,38.0,30.00,ENE,65,0.0,0.0,85,0.00,,,0.00,weatherlink.com 1.10,2013-03-05 15:10:00,
2013-03-05 10:25:00,42.8,38.0,30.00,North,8,0.0,2.0,84,0.00,,,0.00,weatherlink.com 1.10,2013-03-05 15:25:00,
2013-03-05 10:40:00,43.1,39.0,29.99,NW,326,0.0,2.0,84,0.00,,,0.00,weatherlink.com 1.10,2013-03-05 15:40:00,
2013-03-05 10:55:00,42.9,39.0,29.99,NNW,330,1.0,3.0,87,0.00,,,0.00,weatherlink.com 1.10,2013-03-05 15:55:00,
2013-03-05 11:10:00,42.6,40.0,29.98,SW,226,0.0,2.0,89,0.00,,,0.00,weatherlink.com 1.10,2013-03-05 16:10:00,
2013-03-05 11:25:00,43.0,40.0,29.97,SW,236,0.0,1.0,89,0.00,,,0.00,weatherlink.com 1.10,2013-03-05 16:25:00,
2013-03-05 11:40:00,43.9,41.0,29.96,NW,315,2.0,2.0,90,0.00,,,0.00,weatherlink.com 1.10,2013-03-05 16:40:00,
2013-03-05 11:55:00,44.3,41.0,29.95,NW,316,0.0,1.0,88,0.00,,,0.00,weatherlink.com 1.10,2013-03-05 16:55:00,
2013-03-05 12:10:00,45.3,42.0,29.94,NW,319,0.0,1.0,87,0.00,,,0.00,weatherlink.com 1.10,2013-03-05 17:10:00,
2013-03-05 12:25:00,46.0,42.0,29.93,NW,307,0.0,2.0,86,0.00,,,0.00,weatherlink.com 1.10,2013-03-05 17:25:00,
2013-03-05 12:40:00,46.3,42.0,29.93,SW,222,0.0,1.0,84,0.00,,,0.00,weatherlink.com 1.10,2013-03-05 17:40:00,
2013-03-05 12:55:00,46.7,42.0,29.92,North,358,1.0,2.0,83,0.00,,,0.00,weatherlink.com 1.10,2013-03-05 17:55:00,
2013-03-05 13:10:00,46.9,42.0,29.91,West,273,0.0,2.0,82,0.00,,,0.00,weatherlink.com 1.10,2013-03-05 18:10:00,
2013-03-05 13:25:00,46.9,41.0,29.90,NNW,335,1.0,3.0,81,0.00,,,0.00,weatherlink.com 1.10,2013-03-05 18:25:00,
2013-03-05 13:40:00,46.7,42.0,29.89,WNW,287,0.0,2.0,82,0.00,,,0.00,weatherlink.com 1.10,2013-03-05 18:40:00,
2013-03-05 13:55:00,46.4,42.0,29.87,North,9,2.0,2.0,84,0.00,,,0.00,weatherlink.com 1.10,2013-03-05 18:55:00,
2013-03-05 14:10:00,46.4,42.0,29.86,South,190,0.0,1.0,84,0.00,,,0.00,weatherlink.com 1.10,2013-03-05 19:10:00,
2013-03-05 14:25:00,47.0,42.0,29.85,South,191,0.0,1.0,84,0.00,,,0.00,weatherlink.com 1.10,2013-03-05 19:25:00,
2013-03-05 14:40:00,47.2,42.0,29.84,SSE,148,0.0,1.0,83,0.00,,,0.00,weatherlink.com 1.10,2013-03-05 19:40:00,
2013-03-05 14:56:00,47.2,43.0,29.83,SSE,152,1.0,1.0,84,0.00,,,0.00,weatherlink.com 1.10,2013-03-05 19:56:00,
2013-03-05 15:11:00,47.8,43.0,29.81,North,359,0.0,1.0,83,0.00,,,0.00,weatherlink.com 1.10,2013-03-05 20:11:00,
2013-03-05 15:26:00,48.2,43.0,29.79,North,358,0.0,1.0,83,0.00,,,0.00,weatherlink.com 1.10,2013-03-05 20:26:00,
2013-03-05 15:41:00,48.3,43.0,29.78,North,6,0.0,2.0,83,0.00,,,0.00,weatherlink.com 1.10,2013-03-05 20:41:00,
2013-03-05 15:56:00,48.6,44.0,29.78,North,6,0.0,0.0,83,0.00,,,0.00,weatherlink.com 1.10,2013-03-05 20:56:00,
2013-03-05 16:11:00,48.8,44.0,29.77,North,6,0.0,1.0,83,0.00,,,0.00,weatherlink.com 1.10,2013-03-05 21:11:00,
2013-03-05 16:26:00,48.8,44.0,29.76,North,7,0.0,1.0,82,0.00,,,0.00,weatherlink.com 1.10,2013-03-05 21:26:00,
2013-03-05 16:41:00,48.7,44.0,29.73,North,8,0.0,1.0,84,0.00,,,0.00,weatherlink.com 1.10,2013-03-05 21:41:00,
2013-03-05 16:56:00,48.4,44.0,29.70,North,8,0.0,0.0,86,0.01,,,0.01,weatherlink.com 1.10,2013-03-05 21:56:00,
2013-03-05 17:11:00,47.8,45.0,29.68,North,8,0.0,0.0,89,0.02,,,0.02,weatherlink.com 1.10,2013-03-05 22:11:00,
2013-03-05 17:26:00,47.2,45.0,29.68,North,7,0.0,1.0,91,0.05,,,0.05,weatherlink.com 1.10,2013-03-05 22:26:00,
2013-03-05 17:41:00,46.5,45.0,29.68,North,7,0.0,1.0,93,0.12,,,0.12,weatherlink.com 1.10,2013-03-05 22:41:00,
2013-03-05 17:56:00,46.1,45.0,29.70,South,183,0.0,2.0,94,0.22,,,0.23,weatherlink.com 1.10,2013-03-05 22:56:00,
2013-03-05 18:11:00,46.2,45.0,29.72,East,99,0.0,3.0,95,0.37,,,0.39,weatherlink.com 1.10,2013-03-05 23:11:00,
2013-03-05 18:26:00,46.3,45.0,29.70,East,99,0.0,1.0,95,0.44,,,0.50,weatherlink.com 1.10,2013-03-05 23:26:00,
2013-03-05 18:41:00,46.4,45.0,29.68,SE,138,1.0,3.0,95,0.49,,,0.62,weatherlink.com 1.10,2013-03-05 23:41:00,
2013-03-05 18:56:00,46.4,45.0,29.68,SE,138,0.0,0.0,95,0.40,,,0.63,weatherlink.com 1.10,2013-03-05 23:56:00,
2013-03-05 19:11:00,46.2,45.0,29.68,SE,139,0.0,1.0,96,0.23,,,0.63,weatherlink.com 1.10,2013-03-06 00:11:00,
2013-03-05 19:26:00,45.8,45.0,29.69,SE,139,0.0,1.0,96,0.13,,,0.63,weatherlink.com 1.10,2013-03-06 00:26:00,
2013-03-05 19:41:00,45.6,45.0,29.69,SE,139,0.0,1.0,96,0.01,,,0.63,weatherlink.com 1.10,2013-03-06 00:41:00,
2013-03-05 19:56:00,45.5,45.0,29.68,SE,143,1.0,1.0,96,0.00,,,0.63,weatherlink.com 1.10,2013-03-06 00:56:00,
2013-03-05 20:11:00,45.1,44.0,29.68,SE,143,0.0,1.0,96,0.00,,,0.63,weatherlink.com 1.10,2013-03-06 01:11:00,
2013-03-05 20:26:00,44.8,44.0,29.68,SE,143,0.0,0.0,96,0.00,,,0.63,weatherlink.com 1.10,2013-03-06 01:26:00,
2013-03-05 20:41:00,45.0,44.0,29.67,SW,221,0.0,2.0,96,0.00,,,0.63,weatherlink.com 1.10,2013-03-06 01:41:00,
2013-03-05 20:56:00,44.7,44.0,29.67,SW,222,0.0,1.0,96,0.00,,,0.63,weatherlink.com 1.10,2013-03-06 01:56:00,
2013-03-05 21:11:00,44.7,44.0,29.66,SW,221,0.0,1.0,96,0.00,,,0.63,weatherlink.com 1.10,2013-03-06 02:11:00,
2013-03-05 21:26:00,44.4,43.0,29.66,SW,221,1.0,1.0,96,0.00,,,0.63,weatherlink.com 1.10,2013-03-06 02:26:00,
2013-03-05 21:41:00,44.1,43.0,29.67,SW,221,0.0,1.0,96,0.00,,,0.63,weatherlink.com 1.10,2013-03-06 02:41:00,
2013-03-05 21:56:00,44.7,44.0,29.67,SSE,155,0.0,5.0,97,0.00,,,0.63,weatherlink.com 1.10,2013-03-06 02:56:00,
2013-03-05 22:11:00,43.9,43.0,29.68,WNW,295,1.0,3.0,95,0.00,,,0.63,weatherlink.com 1.10,2013-03-06 03:11:00,
2013-03-05 22:26:00,44.2,40.0,29.68,WNW,283,0.0,4.0,85,0.00,,,0.63,weatherlink.com 1.10,2013-03-06 03:26:00,
2013-03-05 22:41:00,44.5,36.0,29.68,WNW,282,1.0,5.0,72,0.00,,,0.63,weatherlink.com 1.10,2013-03-06 03:41:00,
2013-03-05 22:56:00,44.2,36.0,29.68,SW,215,2.0,7.0,73,0.00,,,0.63,weatherlink.com 1.10,2013-03-06 03:56:00,
2013-03-05 23:11:00,42.7,34.0,29.68,WSW,240,2.0,6.0,72,0.00,,,0.63,weatherlink.com 1.10,2013-03-06 04:11:00,
2013-03-05 23:26:00,41.7,33.0,29.68,WSW,245,3.0,7.0,72,0.00,,,0.63,weatherlink.com 1.10,2013-03-06 04:26:00,
2013-03-05 23:41:00,41.1,32.0,29.69,SW,234,5.0,8.0,70,0.00,,,0.63,weatherlink.com 1.10,2013-03-06 04:41:00,
2013-03-05 23:56:00,40.4,32.0,29.70,WSW,255,2.0,6.0,71,0.00,,,0.63,weatherlink.com 1.10,2013-03-06 04:56:00,